Fairfield County (LHQ)

 

Airport Diagram
No Airport Diagram Available
Current Weather/Forecast (IFR Conditions)
METAR KLHQ 260235Z AUTO 06010KT 2 1/2SM BR OVC006 01/M01 A2980 RMK AO2 CIG 005V009 I1000 T00061006
TAF

Airport Information

All Charts
General
Chart Name View
TAKEOFF MINIMUMS
ALTERNATE MINIMUMS
TAKEOFF MINIMUMS
ALTERNATE MINIMUMS

Arrivals
Chart Name Download
GAILL THREE (RNAV)
GUNNE FOUR
GUNNE FOUR, CONT.1
GAILL THREE (RNAV)
GUNNE FOUR
GUNNE FOUR, CONT.1

Approaches
Chart Name Download
RNAV (GPS) RWY 10
RNAV (GPS) RWY 28
VOR OR GPS-A
RNAV (GPS) RWY 10
RNAV (GPS) RWY 28
VOR OR GPS-A


Airport Statistics
Departures Arrivals Local
All Collected Stats since June 2016: 20 24 9
2021 Stats: 2 0 0
January Stats: 2 0 0

Inbound Traffic (Arrivals) - 0

No inbound traffic.


Outbound Traffic (Departures) - 0

No outbound traffic.


Local Traffic (Pattern) - 0

No local traffic.